Voltar ao catálogo

STARLINK-34917

AtivoComunicaçõesSSO
NORAD 65190·PAYLOAD·🇺🇸 United States

Lançado Aug 14, 2025 de Vandenberg Space Force Base

Loading…

Próximas Passagens (próximas 24 horas)

TLE

AtualizadoSource: CelesTrak SupGP

Época: Sep 14, 2026, 23:13 UTC

1 65190C 25175S   26257.96784722  .00077248  00000+0  23971-2 0  2576
2 65190  97.2843 127.0038 0002391  95.9770 251.2644 15.33409717    14

Acompanhe STARLINK-34917 em tempo real com AllMySat

Download on the App Store